Flag Weather past 2 weeks in Lehrte, Lower Saxony, Germany

Now
42 °F

Low clouds.


Feels Like: 39 °F
Forecast: 36 / 41 °F
Wind: 5 mph from East

Location: Hannover

Current Time: Nov 25, 2014 at 11:13:14 PM

Latest Report: Nov 25, 2014 at 9:00 PM


Visibility: 9 mi

Pressure: 30.30 "Hg

Humidity: 89%

Dew point: 39 °F

Location of LehrteLocation

Historic Weather in Lehrte — Graph

°F

Lehrte temperature yesterday

Maximum temperature yesterday: 53 °F (at 5:00 AM)
Minimum temperature yesterday: 40 °F (at 11:00 PM)
Average temperature yesterday: 48 °F

Past Weeks' High & Low Weather Summary

 TemperatureHumidityPressure
High56 °F (Nov 23, 3:00 PM)100% (Nov 13, 1:00 AM)30.39 "Hg (Nov 13, 1:00 AM)
Low30 °F (Nov 21, 8:00 AM)60% (Nov 23, 3:00 PM)29.53 "Hg (Nov 16, 3:00 PM)
Average46 °F89%29.99 "Hg
* Reported Nov 10 9:00 PM — Nov 25 9:00 PM, Lehrte, Weather by CustomWeather, © 2014

Note: Actual official high and low records may vary slightly from our data, if they occured in-between our weather recording intervals... More about our weather records

Advertising

Lehrte weather history for previous 24 hours

 ConditionsComfort  
Time TempWeatherWind HumidityBarometerVisibility
9:00 PM
Nov 25
42 °FLow clouds.5 mph89%30.30 "Hg9 mi
8:00 PM43 °FPassing clouds.3 mph88%30.31 "Hg8 mi
7:00 PM43 °FPassing clouds.3 mph88%30.31 "Hg8 mi
6:00 PM43 °FOvercast.3 mph87%30.32 "Hg8 mi
5:00 PM43 °FLow clouds.3 mph88%30.32 "Hg6 mi
3:00 PM44 °FLow clouds.2 mph88%30.33 "Hg6 mi
2:00 PM44 °FLow clouds.2 mph88%30.34 "Hg5 mi
1:00 PM44 °FFog.3 mph87%30.35 "Hg4 mi
12:00 PM44 °FLow clouds.2 mph89%30.36 "Hg6 mi
11:00 AM44 °FLow clouds.1 mph90%30.37 "Hg9 mi
9:00 AM39 °FFog.1 mph96%30.36 "Hg9 mi
8:00 AM38 °FFog.1 mph97%30.36 "Hg9 mi
7:00 AM38 °FFog.1 mph97%30.35 "Hg6 mi
6:00 AM38 °FPassing clouds.1 mph97%30.35 "Hg5 mi
5:00 AM37 °FPassing clouds.1 mph95%30.34 "Hg8 mi
3:00 AM39 °FPassing clouds.1 mph95%30.34 "Hg9 mi
2:00 AM40 °FPassing clouds.2 mph90%30.34 "Hg16 mi
1:00 AM38 °FPassing clouds.2 mph93%30.34 "Hg16 mi
12:00 AM38 °FPassing clouds.2 mph91%30.34 "Hg19 mi
11:00 PM
Nov 24
40 °FPassing clouds.2 mph88%30.33 "Hg19 mi
Weather by CustomWeather, © 2014

See weather overviewHow to use our weather pages